Date String (YYYY-MM-DD hh:mm:ss) UTC,Instrument flags,Ambient pressure (hPa),Sample flow (lpm),Bypass flow (lpm),Sample temperature (°C),Ambient temperature (°C),ASC tube jacket temperature (°C),LED temperature (°C),Box temperature (°C),Sample RH (%),Span deviation,Mass concentration (μg/m³),Mass concentration (μg/m³),Mass concentration (μg/m³)
DateTimeUTC,F1_M11,P_M11,Q1_M11,Q2_M11,T1_M11,T2_M11,T3_M11,T4_M11,T5_M11,U1_M11,ZSPAN_M11,X0_M11,X2_M11,X1_M11
2022-08-14 15:00:00,,0829.8,4.99,0.00,29.8,27.9,00.0,38.5,31.4,33.1,0000.0,0007.98,0004.59,0004.09
2022-08-14 15:01:00,,0829.8,5.00,0.00,29.8,28.1,00.0,38.5,31.4,32.8,0000.0,0007.64,0004.59,0004.11
2022-08-14 15:02:00,,0829.9,5.01,0.00,29.8,28.2,00.0,38.5,31.5,33.4,0000.0,0007.70,0004.60,0004.12
2022-08-14 15:03:00,,0829.9,5.01,0.00,29.8,28.4,00.0,38.5,31.5,33.2,0000.0,0007.67,0004.58,0004.11
2022-08-14 15:04:00,,0829.9,5.00,0.00,29.8,28.5,00.0,38.5,31.5,33.0,0000.0,0007.70,0004.57,0004.12
2022-08-14 15:05:00,,0829.9,5.00,0.00,29.8,28.6,00.0,38.5,31.6,34.0,0000.0,0007.60,0004.54,0004.13
2022-08-14 15:06:00,,0829.9,5.02,0.00,29.8,28.7,00.0,38.5,31.6,33.8,0000.0,0007.67,0004.57,0004.13
2022-08-14 15:07:00,,0829.9,5.00,0.00,29.9,28.7,00.0,38.6,31.7,32.8,0000.0,0007.70,0004.58,0004.13
2022-08-14 15:08:00,,0829.9,5.00,0.00,29.9,28.6,00.0,38.5,31.6,32.7,0000.0,0007.72,0004.59,0004.14
2022-08-14 15:09:00,,0829.8,4.99,0.00,29.8,28.0,00.0,38.5,31.4,32.8,0000.0,0008.03,0004.59,0004.13
2022-08-14 15:10:00,,0829.8,5.00,0.00,29.8,27.6,00.0,38.5,31.4,33.1,0000.0,0008.53,0004.60,0004.14
2022-08-14 15:11:00,,0829.9,5.00,0.00,29.7,27.5,00.0,38.5,31.3,33.0,0000.0,0008.54,0004.62,0004.16
2022-08-14 15:12:00,,0829.8,5.00,0.00,29.7,27.6,00.0,38.4,31.3,32.8,0000.0,0008.64,0004.63,0004.16
2022-08-14 15:13:00,,0829.9,5.00,0.00,29.6,27.7,00.0,38.4,31.3,32.9,0000.0,0008.76,0004.67,0004.17
2022-08-14 15:14:00,,0829.8,5.01,0.00,29.6,27.9,00.0,38.4,31.3,32.9,0000.0,0008.87,0004.70,0004.18
2022-08-14 15:15:00,,0829.8,4.99,0.00,29.6,28.0,00.0,38.4,31.4,32.9,0000.0,0008.78,0004.71,0004.18
2022-08-14 15:16:00,,0829.8,5.01,0.00,29.6,28.2,00.0,38.4,31.4,33.1,0000.0,0008.87,0004.73,0004.19
2022-08-14 15:17:00,,0829.8,5.01,0.00,29.7,28.3,00.0,38.4,31.5,33.3,0000.0,0009.02,0004.75,0004.20
2022-08-14 15:18:00,,0829.8,5.00,0.00,29.7,28.4,00.0,38.4,31.5,32.7,0000.0,0008.96,0004.75,0004.20
2022-08-14 15:19:00,,0829.9,5.00,0.00,29.7,28.5,00.0,38.4,31.5,32.6,0000.0,0009.00,0004.78,0004.20
2022-08-14 15:20:00,,0829.8,5.00,0.00,29.7,28.6,00.0,38.5,31.6,32.3,0000.0,0008.84,0004.79,0004.21
2022-08-14 15:21:00,,0829.9,5.00,0.00,29.7,28.7,00.0,38.5,31.6,32.7,0000.0,0008.15,0004.77,0004.21
2022-08-14 15:22:00,,0829.9,5.01,0.00,29.8,28.7,00.0,38.5,31.6,31.9,0000.0,0008.28,0004.77,0004.21
2022-08-14 15:23:00,,0829.9,4.99,0.00,29.8,28.2,00.0,38.4,31.5,32.2,0000.0,0008.49,0004.78,0004.20
2022-08-14 15:24:00,,0829.8,5.00,0.00,29.7,27.6,00.0,38.4,31.3,32.5,0000.0,0009.17,0004.77,0004.20
2022-08-14 15:25:00,,0829.8,5.00,0.00,29.7,27.5,00.0,38.4,31.3,33.0,0000.0,0009.11,0004.73,0004.19
2022-08-14 15:26:00,,0829.8,5.00,0.00,29.6,27.5,00.0,38.4,31.2,32.6,0000.0,0009.05,0004.73,0004.19
2022-08-14 15:27:00,,0829.8,5.01,0.00,29.5,27.6,00.0,38.4,31.3,33.0,0000.0,0008.96,0004.72,0004.18
2022-08-14 15:28:00,,0829.8,4.99,0.00,29.5,27.8,00.0,38.3,31.3,32.3,0000.0,0008.78,0004.70,0004.17
2022-08-14 15:29:00,,0829.8,5.00,0.00,29.5,27.9,00.0,38.3,31.3,32.1,0000.0,0008.80,0004.71,0004.16
2022-08-14 15:30:00,,0829.8,5.01,0.00,29.5,28.1,00.0,38.3,31.4,33.0,0000.0,0008.80,0004.68,0004.15
2022-08-14 15:31:00,,0829.8,5.00,0.00,29.6,28.2,00.0,38.3,31.4,32.2,0000.0,0008.80,0004.67,0004.15
2022-08-14 15:32:00,,0829.8,5.00,0.00,29.6,28.4,00.0,38.4,31.5,32.5,0000.0,0008.84,0004.69,0004.15
2022-08-14 15:33:00,,0829.7,5.00,0.00,29.6,28.5,00.0,38.4,31.5,32.7,0000.0,0008.78,0004.70,0004.14
2022-08-14 15:34:00,,0829.7,5.00,0.00,29.6,28.6,00.0,38.4,31.5,33.8,0000.0,0008.68,0004.70,0004.14
2022-08-14 15:35:00,,0829.7,5.01,0.00,29.7,28.7,00.0,38.4,31.6,32.8,0000.0,0007.87,0004.71,0004.15
2022-08-14 15:36:00,,0829.7,5.00,0.00,29.7,28.4,00.0,38.4,31.5,32.7,0000.0,0007.76,0004.71,0004.16
2022-08-14 15:37:00,,0829.7,5.00,0.00,29.6,27.8,00.0,38.3,31.3,33.0,0000.0,0008.51,0004.69,0004.15
2022-08-14 15:38:00,,0829.7,4.99,0.00,29.6,27.5,00.0,38.3,31.3,32.6,0000.0,0008.87,0004.72,0004.16
2022-08-14 15:39:00,,0829.7,5.01,0.00,29.5,27.5,00.0,38.3,31.2,32.4,0000.0,0009.11,0004.75,0004.16
2022-08-14 15:40:00,,0829.6,5.01,0.00,29.5,27.6,00.0,38.3,31.2,32.5,0000.0,0009.64,0004.78,0004.16
2022-08-14 15:41:00,,0829.8,4.99,0.00,29.5,27.7,00.0,38.3,31.2,32.9,0000.0,0009.72,0004.80,0004.17
2022-08-14 15:42:00,,0829.9,5.01,0.00,29.5,27.9,00.0,38.3,31.3,33.2,0000.0,0009.75,0004.82,0004.18
2022-08-14 15:43:00,,0829.8,5.00,0.00,29.5,28.0,00.0,38.3,31.3,33.8,0000.0,0009.78,0004.84,0004.19
2022-08-14 15:44:00,,0829.6,4.99,0.00,29.5,28.2,00.0,38.3,31.4,33.8,0000.0,0009.76,0004.83,0004.19
2022-08-14 15:45:00,,0829.8,5.00,0.00,29.5,28.3,00.0,38.3,31.4,34.2,0000.0,0009.66,0004.80,0004.20
2022-08-14 15:46:00,,0829.8,5.00,0.00,29.6,28.4,00.0,38.3,31.5,33.1,0000.0,0009.58,0004.78,0004.20
2022-08-14 15:47:00,,0829.8,4.99,0.00,29.6,28.6,00.0,38.3,31.5,32.8,0000.0,0009.74,0004.83,0004.20
2022-08-14 15:48:00,,0829.7,5.00,0.00,29.6,28.4,00.0,38.3,31.5,32.4,0000.0,0009.50,0004.89,0004.22
2022-08-14 15:49:00,,0829.7,5.01,0.00,29.6,27.8,00.0,38.3,31.3,32.9,0000.0,0009.18,0004.95,0004.23
2022-08-14 15:50:00,,0829.7,5.00,0.00,29.5,27.4,00.0,38.2,31.2,33.1,0000.0,0009.21,0004.97,0004.24
2022-08-14 15:51:00,,0829.6,5.01,0.00,29.5,27.4,00.0,38.2,31.1,32.9,0000.0,0008.83,0004.98,0004.27
2022-08-14 15:52:00,,0829.6,4.99,0.00,29.4,27.5,00.0,38.2,31.1,33.0,0000.0,0008.75,0005.00,0004.29
2022-08-14 15:53:00,,0829.7,5.01,0.00,29.4,27.6,00.0,38.2,31.2,33.6,0000.0,0008.81,0005.02,0004.30
2022-08-14 15:54:00,,0829.7,5.00,0.00,29.4,27.8,00.0,38.2,31.2,33.0,0000.0,0008.82,0005.02,0004.31
2022-08-14 15:55:00,,0829.6,5.00,0.00,29.4,27.9,00.0,38.2,31.3,33.3,0000.0,0008.73,0005.00,0004.32
2022-08-14 15:56:00,,0829.6,5.00,0.00,29.4,28.1,00.0,38.2,31.3,33.3,0000.0,0008.81,0005.04,0004.35
2022-08-14 15:57:00,,0829.6,5.00,0.00,29.5,28.2,00.0,38.2,31.4,33.1,0000.0,0009.34,0005.07,0004.37
2022-08-14 15:58:00,,0829.5,5.00,0.00,29.5,28.4,00.0,38.2,31.4,33.2,0000.0,0009.75,0005.11,0004.38
2022-08-14 15:59:00,,0829.5,5.01,0.00,29.5,28.5,00.0,38.3,31.4,32.9,0000.0,0009.95,0005.12,0004.39
